Time,TemperatureF,DewpointF,PressureIn,WindDirection,WindDirectionDegrees,WindSpeedMPH,WindSpeedGustMPH,Humidity,HourlyPrecipIn,Conditions,Clouds,dailyrainin,SolarRadiationWatts/m^2,SoftwareType,DateUTC
2013-06-02 00:02:00,50.0,38.0,-100.00,NNE,28,10.0,17.0,63,0.01,,,0.03,0.000000,,2013-06-02 05:02:00,
2013-06-02 00:32:00,49.0,39.0,-100.00,North,3,3.0,14.0,69,0.00,,,0.03,0.000000,,2013-06-02 05:32:00,
2013-06-02 00:42:00,49.0,39.0,-100.00,North,3,3.0,14.0,69,0.00,,,0.03,0.000000,,2013-06-02 05:42:00,
2013-06-02 00:52:00,49.0,39.0,-100.00,North,3,3.0,14.0,69,0.00,,,0.03,0.000000,,2013-06-02 05:52:00,
2013-06-02 01:01:00,49.0,39.0,-100.00,North,3,3.0,14.0,69,0.00,,,0.03,0.000000,,2013-06-02 06:01:00,
2013-06-02 01:32:00,47.0,38.0,-100.00,North,353,3.0,8.0,72,0.00,,,0.03,0.000000,,2013-06-02 06:32:00,
2013-06-02 01:42:00,47.0,38.0,-100.00,North,353,3.0,8.0,72,0.00,,,0.03,0.000000,,2013-06-02 06:42:00,
2013-06-02 01:52:00,47.0,38.0,-100.00,North,353,3.0,8.0,72,0.00,,,0.03,0.000000,,2013-06-02 06:52:00,
2013-06-02 02:01:00,47.0,38.0,-100.00,North,353,3.0,8.0,72,0.00,,,0.03,0.000000,,2013-06-02 07:01:00,
2013-06-02 02:32:00,42.0,38.0,-100.00,NW,322,0.0,7.0,84,0.00,,,0.03,0.000000,,2013-06-02 07:32:00,
2013-06-02 02:42:00,42.0,38.0,-100.00,NW,322,0.0,7.0,84,0.00,,,0.03,0.000000,,2013-06-02 07:42:00,
2013-06-02 02:52:00,42.0,38.0,-100.00,NW,322,0.0,7.0,84,0.00,,,0.03,0.000000,,2013-06-02 07:52:00,
2013-06-02 03:01:00,42.0,38.0,-100.00,NW,322,0.0,7.0,84,0.00,,,0.03,0.000000,,2013-06-02 08:01:00,
2013-06-02 03:32:00,38.0,36.0,-100.00,NW,306,0.0,4.0,92,0.00,,,0.03,0.000000,,2013-06-02 08:32:00,
2013-06-02 03:42:00,38.0,36.0,-100.00,NW,306,0.0,4.0,92,0.00,,,0.03,0.000000,,2013-06-02 08:42:00,
2013-06-02 03:52:00,38.0,36.0,-100.00,NW,306,0.0,4.0,92,0.00,,,0.03,0.000000,,2013-06-02 08:52:00,
2013-06-02 04:01:00,38.0,36.0,-100.00,NW,306,0.0,4.0,92,0.00,,,0.03,0.000000,,2013-06-02 09:01:00,
2013-06-02 04:33:00,34.0,33.0,-100.00,East,79,0.0,3.0,96,0.00,,,0.03,0.000000,,2013-06-02 09:33:00,
2013-06-02 04:43:00,34.0,33.0,-100.00,East,79,0.0,3.0,96,0.00,,,0.03,0.000000,,2013-06-02 09:43:00,
2013-06-02 04:53:00,34.0,33.0,-100.00,East,79,0.0,3.0,96,0.00,,,0.03,0.000000,,2013-06-02 09:53:00,
2013-06-02 05:02:00,34.0,33.0,-100.00,East,79,0.0,3.0,96,0.00,,,0.03,0.000000,,2013-06-02 10:02:00,
2013-06-02 05:33:00,34.0,34.0,-100.00,NNW,336,2.0,3.0,98,0.00,,,0.03,0.000000,,2013-06-02 10:33:00,
2013-06-02 05:42:00,34.0,34.0,-100.00,NNW,336,2.0,3.0,98,0.00,,,0.03,0.000000,,2013-06-02 10:42:00,
2013-06-02 05:52:00,34.0,34.0,-100.00,NNW,336,2.0,3.0,98,0.00,,,0.03,0.000000,,2013-06-02 10:52:00,
2013-06-02 06:02:00,34.0,34.0,-100.00,NNW,336,2.0,3.0,98,0.00,,,0.03,0.000000,,2013-06-02 11:02:00,
2013-06-02 06:32:00,33.0,32.0,-100.00,ENE,73,0.0,4.0,98,0.00,,,0.03,9.000000,,2013-06-02 11:32:00,
2013-06-02 06:42:00,33.0,32.0,-100.00,ENE,73,0.0,4.0,98,0.00,,,0.03,9.000000,,2013-06-02 11:42:00,
2013-06-02 06:52:00,33.0,32.0,-100.00,ENE,73,0.0,4.0,98,0.00,,,0.03,9.000000,,2013-06-02 11:52:00,
2013-06-02 07:01:00,33.0,32.0,-100.00,ENE,73,0.0,4.0,98,0.00,,,0.03,9.000000,,2013-06-02 12:01:00,
2013-06-02 07:32:00,41.0,39.0,-100.00,SSE,150,0.0,4.0,94,0.00,,,0.03,91.000000,,2013-06-02 12:32:00,
2013-06-02 07:42:00,41.0,39.0,-100.00,SSE,150,0.0,4.0,94,0.00,,,0.03,91.000000,,2013-06-02 12:42:00,
2013-06-02 07:52:00,41.0,39.0,-100.00,SSE,150,0.0,4.0,94,0.00,,,0.03,91.000000,,2013-06-02 12:52:00,
2013-06-02 08:01:00,41.0,39.0,-100.00,SSE,150,0.0,4.0,94,0.00,,,0.03,91.000000,,2013-06-02 13:01:00,
2013-06-02 08:32:00,51.0,43.0,-100.00,NW,315,2.0,4.0,75,0.00,,,0.03,316.000000,,2013-06-02 13:32:00,
2013-06-02 08:42:00,51.0,43.0,-100.00,NW,315,2.0,4.0,75,0.00,,,0.03,316.000000,,2013-06-02 13:42:00,
2013-06-02 08:52:00,51.0,43.0,-100.00,NW,315,2.0,4.0,75,0.00,,,0.03,316.000000,,2013-06-02 13:52:00,
2013-06-02 09:02:00,51.0,43.0,-100.00,NW,315,2.0,4.0,75,0.00,,,0.03,316.000000,,2013-06-02 14:02:00,
2013-06-02 09:32:00,55.0,45.0,-100.00,WNW,299,3.0,6.0,68,0.00,,,0.03,472.000000,,2013-06-02 14:32:00,
2013-06-02 09:42:00,55.0,45.0,-100.00,WNW,299,3.0,6.0,68,0.00,,,0.03,472.000000,,2013-06-02 14:42:00,
2013-06-02 09:52:00,55.0,45.0,-100.00,WNW,299,3.0,6.0,68,0.00,,,0.03,472.000000,,2013-06-02 14:52:00,
2013-06-02 10:01:00,55.0,45.0,-100.00,WNW,299,3.0,6.0,68,0.00,,,0.03,472.000000,,2013-06-02 15:01:00,
2013-06-02 10:33:00,58.0,42.0,-100.00,NW,304,5.0,11.0,56,0.00,,,0.03,755.000000,,2013-06-02 15:33:00,
2013-06-02 10:43:00,58.0,42.0,-100.00,NW,304,5.0,11.0,56,0.00,,,0.03,755.000000,,2013-06-02 15:43:00,
2013-06-02 10:53:00,58.0,42.0,-100.00,NW,304,5.0,11.0,56,0.00,,,0.03,755.000000,,2013-06-02 15:53:00,
2013-06-02 11:03:00,58.0,42.0,-100.00,NW,304,5.0,11.0,56,0.00,,,0.03,755.000000,,2013-06-02 16:03:00,
2013-06-02 11:33:00,60.0,40.0,-100.00,NNW,343,6.0,15.0,47,0.00,,,0.03,877.000000,,2013-06-02 16:33:00,
2013-06-02 11:42:00,60.0,40.0,-100.00,NNW,343,6.0,15.0,47,0.00,,,0.03,877.000000,,2013-06-02 16:42:00,
2013-06-02 11:53:00,60.0,40.0,-100.00,NNW,343,6.0,15.0,47,0.00,,,0.03,877.000000,,2013-06-02 16:53:00,
2013-06-02 12:02:00,60.0,40.0,-100.00,NNW,343,6.0,15.0,47,0.00,,,0.03,877.000000,,2013-06-02 17:02:00,
2013-06-02 12:32:00,60.0,40.0,-100.00,WNW,303,5.0,13.0,47,0.00,,,0.03,629.000000,,2013-06-02 17:32:00,
2013-06-02 12:42:00,60.0,40.0,-100.00,WNW,303,5.0,13.0,47,0.00,,,0.03,629.000000,,2013-06-02 17:42:00,
2013-06-02 12:52:00,60.0,40.0,-100.00,WNW,303,5.0,13.0,47,0.00,,,0.03,629.000000,,2013-06-02 17:52:00,
2013-06-02 13:01:00,60.0,40.0,-100.00,WNW,303,5.0,13.0,47,0.00,,,0.03,629.000000,,2013-06-02 18:01:00,
2013-06-02 13:32:00,63.0,39.0,-100.00,West,277,5.0,13.0,41,0.00,,,0.02,981.000000,,2013-06-02 18:32:00,
2013-06-02 13:42:00,63.0,39.0,-100.00,West,277,5.0,13.0,41,0.00,,,0.02,981.000000,,2013-06-02 18:42:00,
2013-06-02 13:52:00,63.0,39.0,-100.00,West,277,5.0,13.0,41,0.00,,,0.02,981.000000,,2013-06-02 18:52:00,
2013-06-02 14:01:00,63.0,39.0,-100.00,West,277,5.0,13.0,41,0.00,,,0.02,981.000000,,2013-06-02 19:01:00,
2013-06-02 14:32:00,65.0,37.0,-100.00,NW,324,5.0,14.0,36,0.00,,,0.02,961.000000,,2013-06-02 19:32:00,
2013-06-02 14:42:00,65.0,37.0,-100.00,NW,324,5.0,14.0,36,0.00,,,0.02,961.000000,,2013-06-02 19:42:00,
2013-06-02 14:52:00,65.0,37.0,-100.00,NW,324,5.0,14.0,36,0.00,,,0.02,961.000000,,2013-06-02 19:52:00,
2013-06-02 15:02:00,65.0,37.0,-100.00,NW,324,5.0,14.0,36,0.00,,,0.02,961.000000,,2013-06-02 20:02:00,
2013-06-02 15:32:00,65.0,37.0,-100.00,WSW,256,5.0,14.0,36,0.00,,,0.02,869.000000,,2013-06-02 20:32:00,
2013-06-02 15:42:00,65.0,37.0,-100.00,WSW,256,5.0,14.0,36,0.00,,,0.02,869.000000,,2013-06-02 20:42:00,
2013-06-02 15:52:00,65.0,37.0,-100.00,WSW,256,5.0,14.0,36,0.00,,,0.02,869.000000,,2013-06-02 20:52:00,
2013-06-02 16:01:00,65.0,37.0,-100.00,WSW,256,5.0,14.0,36,0.00,,,0.02,869.000000,,2013-06-02 21:01:00,
2013-06-02 16:33:00,63.0,37.0,-100.00,NW,321,6.0,11.0,38,0.00,,,0.02,615.000000,,2013-06-02 21:33:00,
2013-06-02 16:43:00,63.0,37.0,-100.00,NW,321,6.0,11.0,38,0.00,,,0.02,615.000000,,2013-06-02 21:43:00,
2013-06-02 16:53:00,63.0,37.0,-100.00,NW,321,6.0,11.0,38,0.00,,,0.02,615.000000,,2013-06-02 21:53:00,
2013-06-02 17:03:00,63.0,37.0,-100.00,NW,321,6.0,11.0,38,0.00,,,0.02,615.000000,,2013-06-02 22:03:00,
2013-06-02 17:33:00,64.0,37.0,-100.00,North,353,4.0,13.0,37,0.00,,,0.02,703.000000,,2013-06-02 22:33:00,
2013-06-02 17:42:00,64.0,37.0,-100.00,North,353,4.0,13.0,37,0.00,,,0.02,703.000000,,2013-06-02 22:42:00,
2013-06-02 17:53:00,64.0,37.0,-100.00,North,353,4.0,13.0,37,0.00,,,0.02,703.000000,,2013-06-02 22:53:00,
2013-06-02 18:02:00,64.0,37.0,-100.00,North,353,4.0,13.0,37,0.00,,,0.02,703.000000,,2013-06-02 23:02:00,
2013-06-02 18:32:00,65.0,36.0,-100.00,North,358,5.0,12.0,34,0.00,,,0.02,570.000000,,2013-06-02 23:32:00,
2013-06-02 18:42:00,65.0,36.0,-100.00,North,358,5.0,12.0,34,0.00,,,0.02,570.000000,,2013-06-02 23:42:00,
2013-06-02 18:52:00,65.0,36.0,-100.00,North,358,5.0,12.0,34,0.00,,,0.02,570.000000,,2013-06-02 23:52:00,
2013-06-02 19:01:00,65.0,36.0,-100.00,North,358,5.0,12.0,34,0.00,,,0.02,570.000000,,2013-06-03 00:01:00,
2013-06-02 19:32:00,64.0,35.0,-100.00,NW,323,5.0,9.0,34,0.00,,,0.02,402.000000,,2013-06-03 00:32:00,
2013-06-02 19:42:00,64.0,35.0,-100.00,NW,323,5.0,9.0,34,0.00,,,0.02,402.000000,,2013-06-03 00:42:00,
2013-06-02 19:52:00,64.0,35.0,-100.00,NW,323,5.0,9.0,34,0.00,,,0.02,402.000000,,2013-06-03 00:52:00,
2013-06-02 20:01:00,64.0,35.0,-100.00,NW,323,5.0,9.0,34,0.00,,,0.02,402.000000,,2013-06-03 01:01:00,
2013-06-02 20:32:00,62.0,37.0,-100.00,North,359,4.0,8.0,40,0.00,,,0.01,194.000000,,2013-06-03 01:32:00,
2013-06-02 20:42:00,62.0,37.0,-100.00,North,359,4.0,8.0,40,0.00,,,0.01,194.000000,,2013-06-03 01:42:00,
2013-06-02 20:52:00,62.0,37.0,-100.00,North,359,4.0,8.0,40,0.00,,,0.01,194.000000,,2013-06-03 01:52:00,
2013-06-02 21:02:00,62.0,37.0,-100.00,North,359,4.0,8.0,40,0.00,,,0.01,194.000000,,2013-06-03 02:02:00,
2013-06-02 21:32:00,54.0,43.0,-100.00,NNW,336,0.0,6.0,65,0.00,,,0.01,32.000000,,2013-06-03 02:32:00,
2013-06-02 21:42:00,54.0,43.0,-100.00,NNW,336,0.0,6.0,65,0.00,,,0.01,32.000000,,2013-06-03 02:42:00,
2013-06-02 21:52:00,54.0,43.0,-100.00,NNW,336,0.0,6.0,65,0.00,,,0.01,32.000000,,2013-06-03 02:52:00,
2013-06-02 22:02:00,54.0,43.0,-100.00,NNW,336,0.0,6.0,65,0.00,,,0.01,32.000000,,2013-06-03 03:02:00,
2013-06-02 22:33:00,47.0,42.0,-100.00,North,349,1.0,5.0,82,0.00,,,0.01,0.000000,,2013-06-03 03:33:00,
2013-06-02 22:43:00,47.0,42.0,-100.00,North,349,1.0,5.0,82,0.00,,,0.01,0.000000,,2013-06-03 03:43:00,
2013-06-02 22:53:00,47.0,42.0,-100.00,North,349,1.0,5.0,82,0.00,,,0.01,0.000000,,2013-06-03 03:53:00,
2013-06-02 23:03:00,47.0,42.0,-100.00,North,349,1.0,5.0,82,0.00,,,0.01,0.000000,,2013-06-03 04:03:00,
2013-06-02 23:33:00,43.0,39.0,-100.00,NE,47,0.0,4.0,87,0.00,,,0.00,0.000000,,2013-06-03 04:33:00,
2013-06-02 23:42:00,43.0,39.0,-100.00,NE,47,0.0,4.0,87,0.00,,,0.00,0.000000,,2013-06-03 04:42:00,
2013-06-02 23:53:00,43.0,39.0,-100.00,NE,47,0.0,4.0,87,0.00,,,0.00,0.000000,,2013-06-03 04:53:00,